Simultaneous Nadir Overpasses (SNOs) Predictions

Prediction of SNOs between GOES-14 and NPP Satellite Orbit:

Table of predicted SNOs for the next 14.0 days since TLE Epoch: 9/21/2024
Index Date Time (GOES-14) GOES-14 Lat,Lon NPP Lat,Lon Distance(km) Time Diff (sec)
1 09/21/2024 08:36:37 -0.04,-108.46 -0.06,-108.31 17.27 80
2 09/23/2024 20:39:44 0.04,-108.42 -0.11,-109.06 73.11 80
3 09/24/2024 20:23:37 0.05,-108.43 0.92,-104.52 444.79 80
4 09/26/2024 08:45:23 -0.05,-108.49 0.22,-109.79 148.11 80
5 09/27/2024 08:23:55 -0.05,-108.49 -0.75,-105.24 369.48 80
6 09/28/2024 20:45:48 0.06,-108.44 -0.40,-110.54 238.64 80
7 09/29/2024 20:29:42 0.06,-108.45 0.64,-106.00 279.80 80
8 10/01/2024 08:51:26 -0.06,-108.52 0.55,-111.26 311.43 80
9 10/02/2024 08:30:00 -0.06,-108.53 -0.49,-106.72 206.69 80
10 10/03/2024 20:51:51 0.06,-108.48 -0.75,-112.00 401.71 80
11 10/04/2024 20:35:45 0.06,-108.49 0.30,-107.46 116.81 80
